Flag for U.S.A. Weather past 2 weeks in Cape Coral, Florida, U.S.A.

Now
83 °F

Sunny.


Feels Like: 88 °F
Forecast: 74 / 90 °F
Wind: 9 mph from West

Location: Page Field

Current Time: Sep 16, 2014 at 4:25:38 PM

Latest Report: Sep 16, 2014 at 3:53 PM


Visibility: 10 mi

Pressure: 30.00 "Hg

Humidity: 68%

Dew point: 71 °F

Location of Cape CoralLocation

Historic Weather in Cape Coral — Graph

°F

Cape Coral temperature yesterday

Maximum temperature yesterday: 94 °F (at 3:53 PM)
Minimum temperature yesterday: 72 °F (at 6:53 AM)
Average temperature yesterday: 82 °F

Past Weeks' High & Low Weather Summary

 TemperatureHumidityPressure
High95 °F (Sep 1, 3:53 PM)100% (Sep 7, 12:53 AM)30.16 "Hg (Sep 7, 12:53 AM)
Low72 °F (Sep 3, 4:53 AM)39% (Sep 13, 3:53 PM)29.88 "Hg (Sep 12, 6:00 PM)
Average79 °F83%30.03 "Hg
* Reported Sep 1 2:53 PM — Sep 16 2:53 PM, Cape Coral, Weather by CustomWeather, © 2014

Note: Actual official high and low records may vary slightly from our data, if they occured in-between our weather recording intervals... More about our weather records

Advertising

Cape Coral weather history for previous 24 hours

 ConditionsComfort  
Time TempWeatherWind HumidityBarometerVisibility
2:53 PM
Sep 16
81 °FThundershowers. Passing clouds.12 mph69%30.02 "Hg10 mi
1:53 PM93 °FPassing clouds.No wind44%30.03 "Hg10 mi
12:53 PM90 °FScattered clouds.5 mph56%30.05 "Hg10 mi
11:53 AM90 °FScattered clouds.3 mph56%30.06 "Hg10 mi
10:53 AM85 °FPassing clouds.3 mph65%30.07 "Hg10 mi
9:53 AM80 °FSunny.3 mph85%30.07 "Hg10 mi
8:53 AM79 °FSunny.3 mph88%30.08 "Hg10 mi
7:53 AM76 °FClear.No wind94%30.09 "Hg10 mi
6:53 AM75 °FClear.No wind94%30.08 "Hg10 mi
5:53 AM75 °FClear.No wind94%30.08 "Hg10 mi
4:53 AM76 °FClear.No wind94%30.06 "Hg10 mi
3:53 AM76 °FClear.3 mph91%30.07 "Hg10 mi
2:53 AM76 °FClear.No wind91%30.09 "Hg10 mi
1:53 AM77 °FClear.3 mph90%30.11 "Hg10 mi
12:53 AM77 °FClear.3 mph94%30.12 "Hg10 mi
11:53 PM
Sep 15
79 °FLight rain. Mostly cloudy.No wind82%30.13 "Hg10 mi
10:53 PM83 °FPassing clouds.No wind65%30.14 "Hg10 mi
9:53 PM85 °FMostly cloudy.No wind61%30.13 "Hg10 mi
8:53 PM85 °FClear.3 mph55%30.10 "Hg10 mi
7:53 PM86 °FPassing clouds.6 mph57%30.08 "Hg10 mi
6:53 PM89 °FScattered clouds.6 mph53%30.06 "Hg10 mi
5:53 PM92 °FSunny.5 mph47%30.06 "Hg10 mi
4:53 PM92 °FScattered clouds.7 mph46%30.07 "Hg10 mi
Weather by CustomWeather, © 2014

See weather overviewHow to use our weather pages